Tracking 19245 objects as of 19-Aug-2018
HD Live streaming from Space Station
objects crossing your sky now

FLOCK 2E-5


FLOCK 2E-5 is no longer on orbit
FLOCK 2E-5 is classified as:


NORAD ID: 41564
Int'l Code: 1998-067JN
Perigee: N/A
Apogee: N/A
Inclination: N/A
Period: N/A
Semi major axis: N/A
RCS: N/A
Launch date: November 20, 1998
Source: United States (US)
Launch site: ()
Decay date: 2018-08-14
aabbcc
Your satellite tracking list
Your tracking list is empty




NASA's NSSDC Master Catalog

Two Line Element Set (TLE):
1 41564U 98067JN  18225.91639610 +.05544764 +12294-4 +88851-3 0  9993
2 41564 051.6050 355.7323 0014258 321.8055 038.1957 16.32532786126499
Source of the keplerian elements: AFSPC